• In Deutschland
  • Länderverzeichnis
  • Für 7 Tage
  • Wassertemperatur
  • Satellitenkarten
  • Wetterkarte
  • Widgets
  • user-avatar
    Anmelden

    Stündliche Wetter Bie

    Heute, 23 Juni, Samstag

    Zeit Temperatur Niederschläge Wind Luftdruck Luftfeuchtigkeit
    00:00 +14°C° 0 mm 1 m/S 650 mmHg 49%
    01:00 +12°C° 0 mm 1 m/S 651 mmHg 60%
    02:00 +12°C° 0 mm 1 m/S 650 mmHg 62%
    03:00 +12°C° 0 mm 1 m/S 650 mmHg 64%
    04:00 +11°C° 0 mm 1 m/S 650 mmHg 66%
    05:00 +11°C° 0 mm 1 m/S 650 mmHg 66%
    06:00 +12°C° 0 mm 1 m/S 651 mmHg 65%
    07:00 +13°C° 0 mm 1 m/S 651 mmHg 63%
    08:00 +16°C° 0 mm 1 m/S 652 mmHg 52%
    09:00 +20°C° 0 mm 2 m/S 653 mmHg 42%
    10:00 +24°C° 0 mm 2 m/S 653 mmHg 31%
    11:00 +26°C° 0 mm 2 m/S 653 mmHg 27%
    12:00 +28°C° 0 mm 1 m/S 653 mmHg 24%
    13:00 +29°C° 0 mm 1 m/S 652 mmHg 20%
    14:00 +29°C° 0 mm 1 m/S 652 mmHg 20%
    15:00 +28°C° 0 mm 1 m/S 651 mmHg 20%
    16:00 +28°C° 0 mm 1 m/S 650 mmHg 21%
    17:00 +25°C° 0 mm 1 m/S 650 mmHg 26%
    18:00 +22°C° 0 mm 1 m/S 650 mmHg 31%
    19:00 +18°C° 0 mm 1 m/S 649 mmHg 37%
    20:00 +18°C° 0 mm 1 m/S 649 mmHg 39%
    21:00 +16°C° 0 mm 1 m/S 649 mmHg 41%
    22:00 +15°C° 0 mm 1 m/S 650 mmHg 43%
    23:00 +14°C° 0 mm 1 m/S 649 mmHg 46%

    Morgen, 24 Juni, Sonntag

    Zeit Temperatur Niederschläge Wind Luftdruck Luftfeuchtigkeit
    00:00 +14°C° 0 mm 1 m/S 649 mmHg 48%
    01:00 +13°C° 0 mm 1 m/S 649 mmHg 50%
    02:00 +12°C° 0 mm 1 m/S 649 mmHg 53%
    03:00 +12°C° 0 mm 1 m/S 649 mmHg 56%
    04:00 +11°C° 0 mm 1 m/S 649 mmHg 59%
    05:00 +12°C° 0 mm 1 m/S 649 mmHg 60%
    06:00 +12°C° 0 mm 1 m/S 649 mmHg 60%
    07:00 +12°C° 0 mm 1 m/S 650 mmHg 60%
    08:00 +16°C° 0 mm 1 m/S 651 mmHg 50%
    09:00 +20°C° 0 mm 2 m/S 652 mmHg 40%
    10:00 +25°C° 0 mm 2 m/S 653 mmHg 30%
    11:00 +27°C° 0 mm 2 m/S 653 mmHg 26%
    12:00 +30°C° 0 mm 1 m/S 653 mmHg 23%
    13:00 +30°C° 0 mm 0 m/S 653 mmHg 19%
    14:00 +29°C° 0 mm 0 m/S 652 mmHg 19%
    15:00 +30°C° 0 mm 1 m/S 651 mmHg 19%
    16:00 +29°C° 0 mm 1 m/S 650 mmHg 19%
    17:00 +26°C° 0 mm 1 m/S 650 mmHg 25%
    18:00 +23°C° 0 mm 1 m/S 649 mmHg 30%
    19:00 +20°C° 0 mm 1 m/S 649 mmHg 35%
    20:00 +19°C° 0 mm 1 m/S 649 mmHg 36%
    21:00 +18°C° 0 mm 1 m/S 649 mmHg 38%
    22:00 +16°C° 0 mm 1 m/S 650 mmHg 39%
    23:00 +15°C° 0 mm 1 m/S 649 mmHg 41%

    übermorgen, 25 Juni, Montag

    Zeit Temperatur Niederschläge Wind Luftdruck Luftfeuchtigkeit
    00:00 +15°C° 0 mm 1 m/S 649 mmHg 43%
    01:00 +14°C° 0 mm 1 m/S 649 mmHg 45%
    02:00 +13°C° 0 mm 1 m/S 649 mmHg 47%
    03:00 +13°C° 0 mm 1 m/S 648 mmHg 49%
    04:00 +12°C° 0 mm 1 m/S 648 mmHg 50%
    05:00 +12°C° 0 mm 1 m/S 648 mmHg 51%
    06:00 +12°C° 0 mm 1 m/S 649 mmHg 51%
    07:00 +13°C° 0 mm 1 m/S 649 mmHg 52%
    08:00 +18°C° 0 mm 1 m/S 650 mmHg 43%
    09:00 +21°C° 0 mm 2 m/S 651 mmHg 35%
    10:00 +26°C° 0 mm 2 m/S 652 mmHg 26%
    11:00 +28°C° 0 mm 1 m/S 652 mmHg 23%
    12:00 +31°C° 0 mm 1 m/S 652 mmHg 20%
    13:00 +31°C° 0 mm 0 m/S 652 mmHg 18%
    14:00 +30°C° 0 mm 0 m/S 651 mmHg 18%
    15:00 +31°C° 0 mm 1 m/S 650 mmHg 19%
    16:00 +29°C° 0 mm 1 m/S 650 mmHg 19%
    17:00 +26°C° 0 mm 1 m/S 649 mmHg 24%
    18:00 +23°C° 0 mm 1 m/S 649 mmHg 29%
    19:00 +20°C° 0 mm 1 m/S 649 mmHg 34%
    20:00 +19°C° 0 mm 1 m/S 649 mmHg 36%
    21:00 +19°C° 0 mm 1 m/S 649 mmHg 37%
    22:00 +18°C° 0 mm 1 m/S 650 mmHg 38%
    23:00 +16°C° 0 mm 1 m/S 649 mmHg 40%

    26 Juni, Dienstag

    Zeit Temperatur Niederschläge Wind Luftdruck Luftfeuchtigkeit
    00:00 +15°C° 0 mm 1 m/S 649 mmHg 42%
    01:00 +15°C° 0 mm 1 m/S 649 mmHg 44%
    02:00 +14°C° 0 mm 1 m/S 649 mmHg 45%
    03:00 +13°C° 0 mm 1 m/S 648 mmHg 47%
    04:00 +13°C° 0 mm 1 m/S 648 mmHg 49%
    05:00 +13°C° 0 mm 1 m/S 649 mmHg 49%
    06:00 +13°C° 0 mm 1 m/S 649 mmHg 50%
    07:00 +13°C° 0 mm 1 m/S 650 mmHg 50%
    08:00 +18°C° 0 mm 1 m/S 651 mmHg 42%
    09:00 +21°C° 0 mm 2 m/S 651 mmHg 34%
    10:00 +27°C° 0 mm 2 m/S 652 mmHg 26%
    11:00 +28°C° 0 mm 2 m/S 652 mmHg 23%
    12:00 +30°C° 0 mm 1 m/S 652 mmHg 20%
    13:00 +32°C° 0 mm 1 m/S 652 mmHg 17%
    14:00 +31°C° 0 mm 1 m/S 651 mmHg 17%
    15:00 +31°C° 0 mm 1 m/S 650 mmHg 18%
    16:00 +30°C° 0 mm 1 m/S 650 mmHg 18%
    17:00 +27°C° 0 mm 1 m/S 649 mmHg 23%
    18:00 +24°C° 0 mm 1 m/S 649 mmHg 27%
    19:00 +21°C° 0 mm 1 m/S 649 mmHg 32%
    20:00 +20°C° 0 mm 1 m/S 649 mmHg 33%
    21:00 +19°C° 0 mm 1 m/S 649 mmHg 35%
    22:00 +18°C° 0 mm 1 m/S 650 mmHg 37%
    23:00 +16°C° 0 mm 1 m/S 649 mmHg 39%

    27 Juni, Mittwoch

    Zeit Temperatur Niederschläge Wind Luftdruck Luftfeuchtigkeit
    00:00 +15°C° 0 mm 1 m/S 649 mmHg 41%
    01:00 +14°C° 0 mm 1 m/S 649 mmHg 43%
    02:00 +14°C° 0 mm 1 m/S 649 mmHg 45%
    03:00 +13°C° 0 mm 1 m/S 648 mmHg 46%
    04:00 +12°C° 0 mm 1 m/S 648 mmHg 48%
    05:00 +12°C° 0 mm 1 m/S 649 mmHg 48%
    06:00 +13°C° 0 mm 1 m/S 649 mmHg 48%
    07:00 +13°C° 0 mm 1 m/S 650 mmHg 48%
    08:00 +18°C° 0 mm 1 m/S 651 mmHg 41%
    09:00 +21°C° 0 mm 2 m/S 652 mmHg 33%
    10:00 +26°C° 0 mm 3 m/S 652 mmHg 25%
    11:00 +27°C° 0 mm 3 m/S 652 mmHg 23%
    12:00 +29°C° 0 mm 2 m/S 652 mmHg 20%
    13:00 +30°C° 0 mm 2 m/S 651 mmHg 18%
    14:00 +30°C° 0 mm 2 m/S 651 mmHg 18%
    15:00 +30°C° 0 mm 2 m/S 650 mmHg 18%
    16:00 +29°C° 0 mm 1 m/S 650 mmHg 18%
    17:00 +26°C° 0 mm 1 m/S 650 mmHg 23%
    18:00 +23°C° 0 mm 1 m/S 649 mmHg 28%
    19:00 +20°C° 0 mm 1 m/S 649 mmHg 33%
    20:00 +19°C° 0 mm 1 m/S 649 mmHg 35%
    21:00 +18°C° 0 mm 1 m/S 649 mmHg 37%
    22:00 +16°C° 0 mm 1 m/S 649 mmHg 39%
    23:00 +15°C° 0 mm 1 m/S 649 mmHg 41%

    28 Juni, Donnerstag

    Zeit Temperatur Niederschläge Wind Luftdruck Luftfeuchtigkeit
    00:00 +15°C° 0 mm 1 m/S 649 mmHg 44%
    01:00 +14°C° 0 mm 1 m/S 649 mmHg 47%
    02:00 +14°C° 0 mm 1 m/S 649 mmHg 49%
    03:00 +13°C° 0 mm 1 m/S 649 mmHg 51%
    04:00 +13°C° 0 mm 1 m/S 648 mmHg 53%
    05:00 +13°C° 0 mm 1 m/S 649 mmHg 53%
    06:00 +13°C° 0 mm 1 m/S 649 mmHg 54%
    07:00 +13°C° 0 mm 1 m/S 650 mmHg 54%
    08:00 +17°C° 0 mm 2 m/S 651 mmHg 44%
    09:00 +21°C° 0 mm 3 m/S 652 mmHg 35%
    10:00 +26°C° 0 mm 3 m/S 652 mmHg 25%
    11:00 +27°C° 0 mm 3 m/S 652 mmHg 23%
    12:00 +29°C° 0 mm 2 m/S 652 mmHg 20%
    13:00 +31°C° 0 mm 2 m/S 651 mmHg 17%
    14:00 +30°C° 0 mm 1 m/S 651 mmHg 17%
    15:00 +30°C° 0 mm 1 m/S 650 mmHg 17%
    16:00 +29°C° 0 mm 1 m/S 650 mmHg 17%
    17:00 +26°C° 0 mm 1 m/S 649 mmHg 22%
    18:00 +23°C° 0 mm 1 m/S 649 mmHg 27%
    19:00 +20°C° 0 mm 1 m/S 649 mmHg 31%
    20:00 +19°C° 0 mm 1 m/S 649 mmHg 34%
    21:00 +18°C° 0 mm 1 m/S 649 mmHg 36%
    22:00 +16°C° 0 mm 1 m/S 649 mmHg 38%
    23:00 +15°C° 0 mm 1 m/S 649 mmHg 41%
    Mehr zeigen